[[{"header":{"parameterUnit":"m.s-1","parameterCategory":1,"la1":30.2991,"la2":30.254,"lo1":-89.0895,"lo2":-89.0444,"dy":0.0017,"dx":0.0017,"nx":28,"ny":28,"refTime":"2024-09-27T21:00:00:Z","depth":0,"parameterNumber":2,"parameterNumberName":"U-component_of_WINDS"},"data":[0,0,0,0,0,0,0,0,0,0,0,0,0,0,0,0,0,0,0,0,0,0,0,0,0,0,0,0,0,0,0,0,0,0,0,0,0,0,0,0,0,0,0,0,0,0,0,0,0,0,0,0,0,0,0,0,0,0,6.5376,6.5379,0,6.5636,6.5639,6.5642,6.5564,6.5559,6.5553,6.5548,6.582,6.5832,6.5844,0,0,0,0,0,0,0,0,0,0,0,0,0,6.4814,6.4825,6.5375,6.5379,6.5382,6.5635,6.5639,6.5642,6.5565,6.5558,6.5552,6.5546,6.5816,6.583,6.5845,0,0,0,0,0,0,0,0,0,0,0,0,0,6.5065,6.4828,6.5375,6.5374,6.5376,6.5635,6.5639,6.5643,6.5566,6.5558,6.555,6.5543,6.5811,6.5829,6.5847,6.6124,0,0,6.5903,6.5911,0,0,0,0,0,0,0,0,6.5051,6.5085,6.5371,6.5374,6.5378,6.5559,6.554,6.5805,6.5568,6.5494,6.5548,6.5539,6.574,6.5764,6.5831,6.6137,6.6148,6.5905,6.5916,6.5924,6.5929,0,0,0,0,0,0,0,6.5033,6.5074,6.5479,6.5375,6.5379,6.5361,6.5388,6.559,6.566,6.55,6.5495,6.5527,6.574,6.5813,6.5836,6.6152,6.5905,6.5921,6.5932,6.594,6.6694,6.6703,0,0,0,0,0,0,6.5013,6.506,6.547,6.5486,6.519,6.5378,6.5407,6.5509,6.5657,6.5672,6.5533,6.5522,6.5786,6.5815,6.5846,6.6176,6.5924,6.5941,6.5952,6.6685,6.6696,6.6706,0,0,0,0,0,0,6.5001,6.505,6.546,6.5272,6.5322,6.5396,6.5511,6.5519,6.5591,6.5682,6.5695,6.5595,6.578,6.582,6.6054,6.6185,6.595,6.5966,6.6675,6.6689,6.6701,6.6842,0,0,0,0,0,0,6.4986,6.5047,6.5152,6.5275,6.5333,6.5664,6.5519,6.553,6.5622,6.561,6.5743,6.5758,6.5777,6.6027,6.6072,6.6206,6.5981,6.6663,6.6681,6.6697,6.6826,6.6858,6.6886,0,0,0,0,0,6.4966,6.5184,6.5158,6.5208,6.5466,6.5671,6.5705,6.5721,6.5633,6.574,6.5798,6.5753,6.6163,6.6052,6.6102,6.6243,6.6655,6.6676,6.6696,6.6812,6.6852,6.6885,0,0,0,0,0,0,6.5077,6.52,6.5173,6.5436,6.5544,6.5658,6.5793,6.5763,6.5899,6.5882,6.5898,6.5929,6.6168,6.623,6.6103,6.6517,6.6396,6.6428,6.6468,6.6506,6.6536,6.6515,6.5996,0,0,0,0,0,6.5132,6.5287,6.5386,6.561,6.5664,6.572,6.581,6.5812,6.5925,6.5971,6.6046,6.6158,6.6311,6.6413,6.656,6.6835,6.6861,6.6956,6.6986,6.7011,6.7037,6.7184,6.7226,6.6773,6.6772,6.6772,0,0,6.5248,6.5334,6.5431,6.5634,6.5717,6.5877,6.5758,6.5934,6.6053,6.5998,6.6222,6.6282,6.6407,6.6662,6.6778,6.6721,6.7168,6.7037,6.7055,6.7069,6.7209,6.7252,6.729,6.6786,6.6784,6.6782,0,0,6.554,6.5622,6.5814,6.5899,6.6026,6.6061,6.6107,6.6225,6.6262,6.6487,6.6447,6.659,6.6855,6.6945,6.7026,6.7348,6.7311,6.7396,6.7554,6.7696,6.7732,6.7763,6.7875,6.7916,6.7422,6.7423,6.7423,0,6.5668,6.5906,6.5918,6.6095,6.6185,6.614,6.6334,6.6417,6.6587,6.6649,6.6582,6.6911,6.6993,6.7266,6.7344,6.7412,6.7464,6.738,6.7725,6.7757,6.7787,6.7894,6.7937,6.7432,6.7431,6.743,6.7429,0,6.6056,6.6222,6.6363,6.6524,6.6629,6.6815,6.6854,6.696,6.6954,6.6995,6.7223,6.732,6.7483,6.7549,6.7546,6.7822,6.7781,6.772,6.7599,6.7839,6.794,6.7981,6.7445,6.7442,6.7439,6.7437,0,0,6.6426,6.6588,6.6639,6.671,6.6845,6.6974,6.7158,6.7315,6.7404,6.7522,6.7675,6.7899,6.7841,6.7933,6.7939,6.8065,6.831,6.7988,6.7991,6.8042,6.8616,6.8659,6.8706,6.8286,6.8294,6.8301,6.8604,0,6.6727,6.7046,6.706,6.7352,6.7504,6.7462,6.7621,6.7721,6.7765,6.7901,6.7949,6.8106,6.8021,6.8075,6.8197,6.8254,6.8425,6.8233,6.8428,6.8435,6.8394,6.8759,6.8806,6.9088,6.8644,6.865,6.8655,0,6.7121,6.7247,6.7552,6.7662,6.7726,6.7869,6.8012,6.8143,6.8256,6.8278,6.8379,6.8366,6.8553,6.8427,6.8683,6.8552,6.8633,6.8673,6.8684,6.8701,6.8558,6.8783,6.9178,6.9219,6.8718,6.8713,6.8709,0,6.7356,6.7603,6.7816,6.7879,6.8013,6.8114,6.8175,6.8279,6.8371,6.8498,6.8557,6.8705,6.8785,6.89,6.8927,6.8833,6.9182,6.9059,6.9205,6.9205,6.9279,6.9274,6.969,6.9336,6.9336,6.9335,6.9334,0,6.7689,6.7876,6.7923,6.8054,6.8262,6.8277,6.8483,6.8537,6.863,6.877,6.8745,6.8878,6.8907,6.9046,6.9069,6.9275,6.9313,6.9336,6.9339,6.9337,6.9333,6.9388,6.9368,6.9346,6.9344,6.9341,6.934,0,6.7986,6.8025,6.8254,6.8361,6.8392,6.8541,6.8633,6.8759,6.8798,6.8976,6.9019,6.9082,6.9243,6.9282,6.9476,6.949,6.9734,6.9721,6.9696,6.9694,6.9836,6.9821,7.03,7.0362,6.9971,6.9974,6.9978,0,6.8194,6.8337,6.8458,6.8549,6.8614,6.8762,6.8855,6.8875,6.8973,6.911,6.9219,6.9376,6.9503,6.9764,6.9827,6.9974,6.9961,7.0119,6.9984,6.9975,6.996,6.995,6.9963,7.0144,7.0149,7.0152,7.0155,0,6.8559,6.857,6.8705,6.8846,6.8957,6.9069,6.9177,6.9253,6.9288,6.9399,6.9562,6.9661,6.9856,7.0012,7.016,7.0223,7.0195,7.0197,7.0238,7.0235,7.0213,7.0223,6.9763,7.0186,7.0182,7.018,7.0179,7.0177,6.8816,6.894,6.9043,6.9193,6.9275,6.9375,6.9496,6.955,6.9686,6.9844,6.9848,7.0025,7.0131,7.0325,7.0397,7.0536,7.0488,7.0548,7.0563,7.0577,7.0587,7.0193,7.0564,7.0563,7.0562,7.0561,7.0561,0,6.9177,6.924,6.9378,6.9527,6.9644,6.9605,6.9721,6.9822,6.9978,7.0078,7.0203,7.0389,7.0539,7.0613,7.0763,7.0859,7.085,7.0898,7.0889,7.0903,7.0624,7.0572,7.0902,7.0902,7.0902,7.0902,7.0902,7.0902,6.9378,6.9583,6.9606,6.9851,6.9914,7.0085,7.0154,7.0246,7.0325,7.0533,7.0657,7.0704,7.0793,7.0948,7.1084,7.1102,7.1157,7.1211,7.1222,7.0959,7.0924,7.0891,7.0841,7.1223,7.1224,7.1489,7.1492,7.1494]},{"header":{"parameterUnit":"m.s-1","parameterCategory":1,"la1":30.2991,"la2":30.254,"lo1":-89.0895,"lo2":-89.0444,"dy":0.0017,"dx":0.0017,"nx":28,"ny":28,"refTime":"2024-09-27T21:00:00:Z","depth":0,"parameterNumber":3,"parameterNumberName":"V-component_of_WINDS"},"data":[0,0,0,0,0,0,0,0,0,0,0,0,0,0,0,0,0,0,0,0,0,0,0,0,0,0,0,0,0,0,0,0,0,0,0,0,0,0,0,0,0,0,0,0,0,0,0,0,0,0,0,0,0,0,0,0,0,0,1.9627,1.9626,0,1.9563,1.9563,1.9562,1.9487,1.9486,1.9485,1.9484,1.9419,1.9418,1.9417,0,0,0,0,0,0,0,0,0,0,0,0,0,1.9682,1.9682,1.9627,1.9626,1.9626,1.9564,1.9563,1.9562,1.9487,1.9486,1.9484,1.9483,1.9419,1.9418,1.9417,0,0,0,0,0,0,0,0,0,0,0,0,0,1.9643,1.9682,1.9627,1.9581,1.9576,1.9564,1.9563,1.9562,1.9487,1.9486,1.9484,1.9482,1.9419,1.9418,1.9417,1.9446,0,0,1.9414,1.9414,0,0,0,0,0,0,0,0,1.9645,1.9641,1.9589,1.9584,1.9579,1.9531,1.9558,1.9523,1.9488,1.9521,1.9483,1.9482,1.9458,1.9453,1.9445,1.9443,1.944,1.9414,1.9414,1.9413,1.9413,0,0,0,0,0,0,0,1.9648,1.9643,1.9602,1.9588,1.9582,1.9562,1.9555,1.9551,1.95,1.9518,1.9512,1.9506,1.9455,1.9446,1.9443,1.9439,1.9414,1.9413,1.9413,1.9412,1.9453,1.9454,0,0,0,0,0,0,1.9658,1.9646,1.9604,1.96,1.9608,1.9563,1.9554,1.9548,1.95,1.9491,1.9507,1.9503,1.9449,1.9444,1.9441,1.9468,1.9413,1.9412,1.9412,1.9451,1.9453,1.9455,0,0,0,0,0,0,1.9659,1.9655,1.9607,1.9621,1.9614,1.9564,1.9557,1.9548,1.954,1.9492,1.9482,1.9509,1.9447,1.9442,1.9444,1.9465,1.9412,1.9411,1.9449,1.9452,1.9454,1.9526,0,0,0,0,0,0,1.9661,1.9656,1.9667,1.9622,1.9613,1.9612,1.9559,1.9548,1.9538,1.9531,1.949,1.9482,1.9446,1.9446,1.9443,1.9463,1.941,1.9447,1.945,1.9453,1.9521,1.953,1.9538,0,0,0,0,0,1.9663,1.969,1.9668,1.9663,1.9626,1.9614,1.9608,1.9566,1.954,1.955,1.9519,1.9483,1.9463,1.9447,1.9443,1.9463,1.9445,1.9449,1.9453,1.9518,1.9529,1.9538,0,0,0,0,0,0,1.974,1.9684,1.9658,1.9671,1.9648,1.9601,1.9613,1.958,1.9563,1.9558,1.9506,1.9497,1.9505,1.9484,1.9467,1.9486,1.9449,1.9452,1.9499,1.951,1.9518,1.9523,1.9409,0,0,0,0,0,1.9758,1.9753,1.9704,1.9721,1.971,1.9663,1.9656,1.9626,1.9599,1.9589,1.9558,1.9533,1.952,1.9514,1.95,1.9518,1.9506,1.9529,1.9537,1.9545,1.9548,1.9553,1.9561,1.9467,1.9467,1.9467,0,0,1.9796,1.9764,1.9765,1.9735,1.9713,1.9708,1.9655,1.9653,1.9648,1.9588,1.9588,1.9564,1.9533,1.9542,1.9544,1.9525,1.9571,1.9549,1.9555,1.9555,1.9557,1.9566,1.9574,1.9469,1.9469,1.9469,0,0,1.9862,1.9839,1.9848,1.9827,1.9794,1.9762,1.9764,1.9722,1.9703,1.9702,1.9656,1.9649,1.963,1.9609,1.9596,1.965,1.9616,1.9647,1.9692,1.9697,1.9704,1.971,1.9728,1.9735,1.9651,1.9651,1.9651,0,1.9913,1.9904,1.9858,1.9857,1.9845,1.9789,1.9798,1.9779,1.9743,1.9735,1.9714,1.9686,1.9661,1.9663,1.9676,1.9668,1.9668,1.9652,1.9707,1.9713,1.9718,1.9734,1.9741,1.9655,1.9654,1.9654,1.9654,0,1.9968,1.9962,1.9974,1.994,1.9928,1.9933,1.9886,1.988,1.9849,1.982,1.9817,1.9785,1.9763,1.9761,1.9732,1.9758,1.9746,1.9717,1.9678,1.9732,1.9746,1.9752,1.966,1.9659,1.9658,1.9657,0,0,2.0082,2.002,2.0025,2.0008,1.9966,1.996,1.9961,1.9938,1.9933,1.9909,1.9907,1.9891,1.9862,1.9847,1.9814,1.9819,1.9862,1.9788,1.9786,1.9802,1.9886,1.9908,1.9916,1.9838,1.9839,1.984,1.9888,0,2.014,2.0138,2.0095,2.0105,2.0097,2.0043,2.0043,2.0016,1.9988,1.9977,1.9945,1.9933,1.9897,1.9887,1.989,1.9856,1.9878,1.9852,1.9835,1.9835,1.9844,1.9924,1.9948,1.9994,1.9893,1.9894,1.9895,0,2.0208,2.0187,2.0196,2.0151,2.0146,2.0147,2.0121,2.0112,2.008,2.0058,2.004,2.0002,1.9998,1.9962,1.9954,1.9938,1.9928,1.991,1.9911,1.9907,1.9868,1.9921,2.0008,2.0015,1.9904,1.9903,1.9902,0,2.0288,2.0263,2.0264,2.0251,2.0199,2.02,2.0178,2.0144,2.0133,2.011,2.0101,2.0078,2.0066,2.0048,2.0005,1.9983,2.0001,1.9962,1.9982,1.9983,1.9989,1.9989,2.0074,1.9984,1.9984,1.9984,1.9983,0,2.0357,2.0364,2.0299,2.03,2.0305,2.0255,2.0261,2.0234,2.0204,2.0197,2.0148,2.0143,2.0086,2.0074,2.004,2.0037,2.0032,2.0014,2.0004,2.0018,2.002,2.001,2.0006,1.9985,1.9985,1.9985,1.9984,0,2.0448,2.0405,2.0402,2.0352,2.034,2.0346,2.0302,2.03,2.0268,2.026,2.0255,2.0204,2.0186,2.0141,2.0112,2.0089,2.0095,2.0079,2.0106,2.01,2.0122,2.012,2.0204,2.0211,2.0118,2.0119,2.0119,0,2.0495,2.0499,2.0449,2.044,2.0421,2.0409,2.0395,2.0345,2.0333,2.0295,2.0297,2.0276,2.0256,2.023,2.019,2.0167,2.0148,2.0179,2.0145,2.0157,2.0147,2.0147,2.0146,2.0187,2.0188,2.0189,2.019,0,2.0581,2.0559,2.0542,2.0518,2.0503,2.0481,2.0457,2.0453,2.0396,2.0385,2.0366,2.035,2.0319,2.0298,2.0268,2.0244,2.0207,2.0201,2.0204,2.0218,2.0233,2.0223,2.0126,2.02,2.0199,2.0198,2.0197,2.0197,2.065,2.065,2.0614,2.0597,2.0572,2.055,2.0544,2.051,2.0494,2.0465,2.0436,2.0419,2.0384,2.0339,2.0318,2.0303,2.0284,2.029,2.029,2.0292,2.0297,2.0235,2.0298,2.0298,2.0297,2.0297,2.0297,0,2.0733,2.0706,2.0691,2.0657,2.0642,2.0608,2.0578,2.0568,2.0555,2.0525,2.0505,2.0482,2.046,2.0417,2.0391,2.0388,2.037,2.0382,2.0382,2.0376,2.0317,2.0316,2.0397,2.0397,2.0397,2.0397,2.0397,2.0397,2.0774,2.0772,2.0745,2.0728,2.0701,2.0685,2.067,2.0648,2.0624,2.06,2.0582,2.0554,2.0518,2.0488,2.0465,2.0453,2.0445,2.0463,2.0445,2.039,2.0381,2.0372,2.0371,2.0462,2.0462,2.0506,2.0506,2.0506]}]]